Regional Weather Roundup
Issued by NWS

Home | Current Version | Previous Version | Text Only | Print | Product List | Glossary On
Versions: 1 2 3 4 5 6 7 8 9 10 11 12 13 14 15 16 17 18 19 20 21 22 23 24 25 26 27
000
ASUS42 KTBW 032016
RWRFL
FLORIDA REGIONAL WEATHER ROUNDUP
NATIONAL WEATHER SERVICE TAMPA BAY RUSKIN FL
400 PM EDT TUE MAY 03 2016

NOTE: "FAIR" INDICATES FEW OR NO CLOUDS BELOW 12,000 FEET WITH NO
SIGNIFICANT WEATHER AND/OR OBSTRUCTIONS TO VISIBILITY.

FLZ001>010-012>015-112-114-115-032100-
PANHANDLE FLORIDA

CITY           SKY/WX    TMP DP  RH WIND       PRES   REMARKS
PENSACOLA      CLOUDY    80  68  66 S8        29.87F
PENSACOLA NAS  CLOUDY    78  69  73 S8        29.86F
MILTON NAS     PTSUNNY   78  70  76 NW9       29.87
CRESTVIEW      MOSUNNY   85  65  51 NW8       29.87F
DUKE FIELD     PTSUNNY   78  68  70 S10       29.85F
VALPARAISO     PTSUNNY   76  71  83 SW7       29.86F
MARY ESTHER    PTSUNNY   81  66  61 S10       29.85F
TRI COUNTY     CLOUDY    76  70  82 S12       29.88S
PANAMA CITY    PTSUNNY   83  67  58 SW8       29.85F
TYNDALL AFB    PTSUNNY   82  71  68 SW6       29.87S
APALACHICOLA   MOSUNNY   83  73  72 S15       29.88F

STATION/POSITION SKY/WX   TEMP    WIND        PRES    WAVE   SWELL
                          AIR SEA DIR/SP/G            HT/PER HT/PER
                          (F)     (DEG/KT/KT) (MB)    (FT/S) (FT/S)
30.1N   87.6W              76 80  220/  4/  6 1011.1F   2/ 7   2/ 7
29.2N   88.2W              76 77   40/  4/  6 1012.5F
28.8N   86.0W              74 78  190/ 23/ 27 1010.6F   3/ 6   2/ 6
PANAMA CITY BEAC           76 77  260/  8/ 10 1011.9F
TOWER C                    76     210/  6/  7 1012.6F
28.5N   84.5W              72 77   70/ 12/ 16 1012.6F   2/ 6   2/12

$$
FLZ011-016>038-118-127-128-134-139-239-032100-
NORTH FLORIDA

CITY           SKY/WX    TMP DP  RH WIND       PRES   REMARKS
MARIANNA       CLOUDY    78  70  76 SW8       29.85F
TALLAHASSEE    PTSUNNY   81  69  67 S18       29.85F THUNDER
PERRY            N/A     85  70  60 S13       29.87F
LIVE OAK       CLOUDY    88  66  48 SW8       29.87F
CROSS CITY       N/A     85  68  56 SW13      29.88F
LAKE CITY      FAIR      88  64  45 W13G21    29.86F
GAINESVILLE    MOSUNNY   87  65  47 SW15G23   29.87F
WILLISTON      FAIR      82  75  78 SW10      29.90F
PALATKA        FAIR      88  68  51 SW13G25   29.86F
MAYPORT NAS    PTSUNNY   89  61  38 W9G18     29.83F
JACKSONVILLE   PTSUNNY   88  63  43 W12       29.82F
JAX NAS        PTSUNNY   90  61  37 W14       29.84F
JAX CECIL      MOSUNNY   86  66  51 W13       29.85F
FERNANDINA BEA FAIR      91  61  35 SW10      29.82F
ST AUGUSTINE   CLOUDY    89  67  47 N9        29.84
PALM COAST     MOSUNNY   88  64  45 W12       29.85F

STATION/POSITION SKY/WX   TEMP    WIND        PRES    WAVE   SWELL
                          AIR SEA DIR/SP/G            HT/PER HT/PER
                          (F)     (DEG/KT/KT) (MB)    (FT/S) (FT/S)
SHELL POINT                80     180/ 13/ 17 1010.7
KEATON BEACH               78     210/ 12/ 13 1011.6F
CEDAR KEY                  79     250/  8/ 11 1013.0F
FERNANDINA                 85 79  260/  7/ 12 1010.9F
30.7N   81.3W                 74                N/A     3/ 6
MAYPORT                    85 78  260/  9/ 16 1011.0F
ST AUGUSTINE               76 71  100/ 12/ 13 1011.2F

$$
FLZ040-043>046-052-053-057-058-063-144-032100-
INTERIOR CENTRAL FLORIDA

CITY           SKY/WX    TMP DP  RH WIND       PRES   REMARKS
OCALA          MOSUNNY   86  64  48 SW17      29.89F
THE VILLAGES     N/A     88  68  51 SW8G17    29.79F
LEESBURG       MOSUNNY   87  66  49 W14G20    29.89F
SANFORD        MOSUNNY   88  67  49 W12       29.86F
ORLANDO EXEC   SUNNY     90  66  45 SW9       29.87F
ORLANDO INTL   PTSUNNY   87  66  49 W14       29.87F
KISSIMMEE      PTSUNNY   88  68  51 W7        29.88F
WINTER HAVEN   MOSUNNY   87  64  46 W12       29.89F
LAKELAND       MOSUNNY   88  64  45 W14G21    29.90F
BARTOW         PTSUNNY   90  66  45 W15       29.89
OKEECHOBEE     MOSUNNY   88  68  51 SW8       29.88F

$$
FLZ041-047-054-059-064-141-147-032100-
EAST CENTRAL FLORIDA

CITY           SKY/WX    TMP DP  RH WIND       PRES   REMARKS
DAYTONA BEACH  MOSUNNY   84  71  65 W10       29.86F
DELAND           N/A     88  64  45 SW8G17    29.87F
NEW SMYRNA BEA MOSUNNY   86  64  48 W16G23    29.87F
JFK SPACE CTR  PTSUNNY   83  68  60 SW13G25   29.86F
TITUSVILLE     PTSUNNY   84  70  61 W12       29.88F
CAPE CANAVERAL MOSUNNY   89  66  46 NW10      29.85F
PATRICK AFB    SUNNY     91  67  44 W10       29.86F
MELBOURNE      PTSUNNY   91  65  41 W9G18     29.86F
VERO BEACH     PTSUNNY   90  63  40 W9        29.87F
FT PIERCE      PTSUNNY   90  67  46 W9        29.86F

STATION/POSITION SKY/WX   TEMP    WIND        PRES    WAVE   SWELL
                          AIR SEA DIR/SP/G            HT/PER HT/PER
                          (F)     (DEG/KT/KT) (MB)    (FT/S) (FT/S)
28.5N   80.2W              78 79  150/ 10/ 10 1012.2F
28.9N   78.5W              78 78  220/ 10/ 12 1013.2S
TRIDENT PIER               86 81  230/  9/ 12 1012.1F
28.4N   80.5W                 79                N/A     2/ 6
27.5N   80.2W                 79                N/A     3/12   2/12

$$
FLZ050-056-061-142-242-148-248-149-249-151-251-155-255-
160-260-032100-
WEST CENTRAL FLORIDA

CITY           SKY/WX    TMP DP  RH WIND       PRES   REMARKS
CRYSTAL RIVER  FAIR      82  72  69 SW6       29.91S
INVERNESS      FAIR      86  70  58 W5        29.90F
BROOKSVILLE    MOSUNNY   84  69  60 W16       29.91F
ZEPHYRHILLS    FAIR      90  60  36 W15       29.90F
CLEARWATER AIR FAIR      82  72  69 W13       29.91S
ST PETE CLEARW CLOUDY    85  71  63 W12       29.91F
TAMPA INTL     CLOUDY    86  71  60 W12       29.91F
TAMPA EXEC     MOSUNNY   90  68  48 W7G16     29.91S
PLANT CITY     MOSUNNY   90  68  48 W13G22    29.92S
MACDILL AFB    MOSUNNY   87  75  68 SW12      29.91F HX  96
PETER O KNIGHT MOSUNNY   88  73  62 SW8       29.91S HX  96
ST PETERSBURG  MOSUNNY   83  72  69 W15G22    29.89F
SARASOTA       MOSUNNY   86  73  65 SW10      29.91S
VENICE         NOT AVBL

STATION/POSITION SKY/WX   TEMP    WIND        PRES    WAVE   SWELL
                          AIR SEA DIR/SP/G            HT/PER HT/PER
                          (F)     (DEG/KT/KT) (MB)    (FT/S) (FT/S)
27.3N   84.2W                 80                N/A     2/ 7
CLEARWATER BEACH           79 82  210/ 11/ 12 1013.2F
MIDDLE TAMPA BAY           80     250/ 11/ 12 1013.6F
VENICE                     81 85  240/  8/  9 1012.5F

$$
FLZ066-069-070-075>078-162-262-165-265-032100-
SOUTHWEST FLORIDA AND KEYS

CITY           SKY/WX    TMP DP  RH WIND       PRES   REMARKS
PUNTA GORDA    SUNNY     87  72  60 W15       29.91F
FT MYERS       MOSUNNY   89  72  56 SW9       29.89F HX  96
SOUTHWEST INTL SUNNY     87  72  60 SW12      29.89F
NAPLES         SUNNY     86  75  69 SW9       29.90F HX  95
MARCO ISLAND   PTSUNNY   90  73  58 W9        29.90F HX  98
MARATHON       SUNNY     89  76  65 W7        29.91F HX 100
KEY WEST NAS   MOSUNNY   88  74  63 SW10      29.91F HX  96
KEY WEST INTL  SUNNY     82  76  81 SW10      29.91F

STATION/POSITION SKY/WX   TEMP    WIND        PRES    WAVE   SWELL
                          AIR SEA DIR/SP/G            HT/PER HT/PER
                          (F)     (DEG/KT/KT) (MB)    (FT/S) (FT/S)
NAPLES                        85              1012.9F
26.0N   85.6W              81 82  240/  6/  6 1013.8F   2/ 7   2/ 7
DRY TORTUGAS               82      CALM  /  1 1012.8F
SAND KEY                   81     260/  7/ 10 1013.4F
LONG KEY                   83 84  260/  9/ 10 1013.1F
MOLASSES REEF              81 81  200/ 11/ 12 1013.6

$$
FLZ067-068-071>074-168-172>174-032100-
SOUTHEAST FLORIDA

CITY           SKY/WX    TMP DP  RH WIND       PRES   REMARKS
W PALM BEACH   PTSUNNY   88  72  58 S10       29.88F
BOCA RATON     MOSUNNY   88  75  66 S16       29.88F HX  97
FT LAUDER-EXEC CLOUDY    85  68  56 S16       29.88F
FT LAUDERDALE  LGT RAIN  84  75  74 SE9       29.89S
POMPANO BEACH  MOSUNNY   85  76  74 SE17      29.88F
PEMBROKE PINES HVY RAIN  81  77  88 S12       29.91S FOG
OPA LOCKA      CLOUDY    84  76  76 SE17      29.88F THUNDER
MIAMI          TSTM      80  73  79 SE14      29.89F
WEST KENDALL   PTSUNNY   89  72  56 SW12G21   29.88F HX  96
HOMESTEAD      MOSUNNY   89  74  61 S15       29.88F HX  97

STATION/POSITION SKY/WX   TEMP    WIND        PRES    WAVE   SWELL
                          AIR SEA DIR/SP/G            HT/PER HT/PER
                          (F)     (DEG/KT/KT) (MB)    (FT/S) (FT/S)
PORT EVERGLADES            83     150/ 12/ 15 1012.6F
VIRGINIA KEY               82 83  150/ 12/ 16 1013.6F
LAKE WORTH                 81 80  170/ 17/ 19 1012.0F
SETTLEMENT POINT           80     190/ 11/ 13 1013.5F

$$





USA.gov is the U.S. government's official web portal to all federal, state and local government web resources and services.